Home   Weather   Zürich   Past weeks

Flag for Switzerland Past Weather in Zürich, Zurich, Switzerland — Yesterday and Last 2 Weeks

Now
42 °F

Quite cool.


Feels Like: 40 °F
Forecast: 38 / 50 °F
Wind: 3 mph from Southwest

Location: Zuerich-Fluntern

Current Time: Feb 20, 2017 at 2:49:16 am

Latest Report: Feb 20, 2017 at 2:00 am


Visibility: N/A

Pressure: 30.30 "Hg

Humidity: 70%

Dew Point: 32 °F

Location of ZürichLocation

Past Weather in Zürich — Graph

°F

Zürich Temperature Yesterday

Maximum temperature yesterday: 47 °F (at 2:00 pm)
Minimum temperature yesterday: 29 °F (at 7:00 am)
Average temperature yesterday: 37 °F

High & Low Weather Summary for the Past Weeks

 TemperatureHumidityPressure
High55 °F (Feb 16, 4:00 pm)100% (Feb 5, 11:00 pm)30.65 "Hg (Feb 5, 11:00 pm)
Low28 °F (Feb 9, 7:00 am)47% (Feb 16, 3:00 pm)29.63 "Hg (Feb 5, 12:00 pm)
Average35 °F85%30.24 "Hg
* Reported Feb 5 1:00 am — Feb 20 1:00 am, Zürich, Weather by CustomWeather, © 2017

Note: Actual official high and low records may vary slightly from our data, if they occured in-between our weather recording intervals... More about our weather records

Advertising

Zürich Weather History for the Previous 24 Hours

Scroll right to see more
 ConditionsComfort  
Time TempWeatherWind HumidityBarometerVisibility
1:00 am
Mon, Feb 20
41 °FQuite cool.3 mph72%30.31 "HgN/A
12:00 am43 °FQuite cool.2 mph66%30.30 "HgN/A
11:00 pm
Sun, Feb 19
42 °FQuite cool.5 mph70%30.29 "HgN/A
10:00 pm41 °FQuite cool.5 mph72%30.28 "HgN/A
9:00 pm40 °FChilly.2 mph78%30.28 "HgN/A
8:00 pm41 °FQuite cool.2 mph76%30.27 "HgN/A
7:00 pm43 °FPassing clouds.3 mph68%30.25 "HgN/A
6:00 pm44 °FQuite cool.5 mph65%30.23 "HgN/A
5:00 pm45 °FCool.1 mph61%30.24 "HgN/A
4:00 pm46 °FCool.3 mph60%30.25 "HgN/A
3:00 pm47 °FCool.5 mph58%30.25 "HgN/A
2:00 pm47 °FCool.8 mph60%30.27 "HgN/A
1:00 pm44 °FQuite cool.6 mph65%30.29 "HgN/A
12:00 pm42 °FQuite cool.3 mph67%30.32 "HgN/A
11:00 am37 °FChilly.2 mph83%30.34 "HgN/A
10:00 am32 °FChilly.1 mph95%30.36 "HgN/A
9:00 am30 °FChilly.2 mph98%30.37 "HgN/A
8:00 am29 °FChilly.1 mph100%30.36 "HgN/A
7:00 am29 °FChilly.No wind100%30.35 "HgN/A
6:00 am30 °FChilly.1 mph100%30.34 "HgN/A
5:00 am31 °FChilly.1 mph99%30.34 "HgN/A
4:00 am30 °FChilly.1 mph96%30.35 "HgN/A
3:00 am31 °FChilly.No wind94%30.35 "HgN/A
2:00 am32 °FChilly.1 mph94%30.34 "HgN/A
Weather by CustomWeather, © 2017

See weather overviewHow to use our weather pages